Weather History for Cherry Point, NC

Change the Weather History Date:

Thursday, July 25, 2013

  Actual Average Record
Temperature  
Mean Temperature 80 °F -  
Max Temperature 88 °F 84 °F 93 °F (2010)
Min Temperature 73 °F 70 °F 64 °F (2007)
Cooling Degree Days 14    
Growing Degree Days 30 (Base 50)    
Moisture  
Dew Point 71 °F    
Average Humidity 74    
Maximum Humidity 91    
Minimum Humidity 59    
Precipitation  
Precipitation 0.00 in - - ()
Sea Level Pressure  
Sea Level Pressure 29.87 in    
Wind  
Wind Speed 7 mph ()    
Max Wind Speed 13 mph    
Max Gust Speed 21 mph    
Visibility 9.7 miles    
Events      
Averages and records for this station are not official NWS values.
T = Trace of Precipitation, MM = Missing Value Source: Averaged Metar Reports

Daily Weather History Graph

Daily Weather History Graph

Search for Another Location

Airport:

Trip Planner

Search our weather history database for the weather conditions in past years. The results will help you decide how hot, cold, wet, or windy it might be!

Date:

Astronomy

Jul. 25, 2013 Rise Set
Actual Time 6:12 AM EDT 8:15 PM EDT
Civil Twilight 5:43 AM EDT 8:43 PM EDT
Nautical Twilight 5:09 AM EDT 9:18 PM EDT
Astronomical Twilight 4:32 AM EDT 9:54 PM EDT
Moon 10:06 PM EDT (7/25) 9:28 AM EDT (7/25)
Length of Visible Light 14h 59m
Length of Day
14h 03m
Waning Gibbous, 88% of the Moon is Illuminated
Jul 25
Waning Gibbous
Jul 29
Last Quarter
Aug 6
New
Aug 14
First Quarter
Aug 20
Full

Hourly Weather History & Observations

Time (EDT) Temp. Heat Index Dew Point Humidity Pressure Visibility Wind Dir Wind Speed Gust Speed Precip Events Conditions
12:54 AM 77.0 °F - 73.0 °F 88% 29.84 in 10.0 mi WNW 4.6 mph - N/A   Mostly Cloudy
1:54 AM 75.9 °F - 73.0 °F 91% 29.81 in 10.0 mi Calm Calm - N/A   Mostly Cloudy
2:54 AM 75.9 °F - 73.0 °F 91% 29.79 in 9.0 mi East 3.5 mph - N/A   Mostly Cloudy
3:54 AM 75.9 °F - 73.0 °F 91% 29.80 in 10.0 mi North 9.2 mph - N/A   Mostly Cloudy
4:54 AM 75.0 °F - 68.0 °F 79% 29.80 in 10.0 mi NNE 10.4 mph - N/A   Mostly Cloudy
5:54 AM 73.9 °F - 68.0 °F 82% 29.81 in 10.0 mi North 8.1 mph - N/A   Mostly Cloudy
6:54 AM 73.9 °F - 69.1 °F 85% 29.83 in 10.0 mi North 5.8 mph - N/A   Clear
7:54 AM 75.0 °F - 70.0 °F 84% 29.82 in 10.0 mi NE 8.1 mph - N/A   Scattered Clouds
8:52 AM 78.8 °F - 71.6 °F 78% 29.84 in 9.0 mi NNE 9.2 mph - N/A   Mostly Cloudy
8:54 AM 78.1 °F - 72.0 °F 81% 29.84 in 9.0 mi NE 8.1 mph - N/A   Mostly Cloudy
9:08 AM 79.0 °F - 72.0 °F 79% 29.85 in 2.5 mi NNE 9.2 mph - N/A   Haze
9:50 AM 80.6 °F 85.4 °F 73.4 °F 79% 29.85 in 10.0 mi North 9.2 mph - N/A   Mostly Cloudy
9:54 AM 80.1 °F 84.2 °F 73.0 °F 79% 29.84 in 10.0 mi NNE 10.4 mph - N/A   Mostly Cloudy
10:54 AM 82.0 °F 86.7 °F 72.0 °F 71% 29.85 in 10.0 mi NNE 12.7 mph - N/A   Mostly Cloudy
11:19 AM 82.9 °F 88.0 °F 72.0 °F 69% 29.86 in 10.0 mi NE 11.5 mph - N/A   Scattered Clouds
11:54 AM 84.0 °F 90.2 °F 73.0 °F 69% 29.86 in 10.0 mi NNE 9.2 mph - N/A   Mostly Cloudy
12:54 PM 84.9 °F 90.7 °F 72.0 °F 65% 29.86 in 10.0 mi NNE 6.9 mph - N/A   Scattered Clouds
1:01 PM 84.9 °F 90.7 °F 72.0 °F 65% 29.87 in 10.0 mi North 8.1 mph - N/A   Mostly Cloudy
1:24 PM 84.9 °F 90.7 °F 72.0 °F 65% 29.87 in 10.0 mi North 6.9 mph - N/A   Mostly Cloudy
1:54 PM 84.0 °F 90.2 °F 73.0 °F 69% 29.86 in 10.0 mi NE 6.9 mph - N/A   Mostly Cloudy
2:54 PM 86.0 °F 91.5 °F 71.1 °F 61% 29.86 in 10.0 mi NNW 12.7 mph 20.7 mph N/A   Mostly Cloudy
3:54 PM 86.0 °F 90.7 °F 70.0 °F 59% 29.87 in 10.0 mi NNE 12.7 mph - N/A   Mostly Cloudy
4:01 PM 84.9 °F 89.4 °F 70.0 °F 61% 29.87 in 10.0 mi NNE 10.4 mph 17.3 mph N/A   Mostly Cloudy
4:54 PM 84.0 °F 88.4 °F 70.0 °F 63% 29.87 in 10.0 mi North 11.5 mph 18.4 mph N/A   Mostly Cloudy
5:54 PM 84.9 °F 89.4 °F 70.0 °F 61% 29.88 in 10.0 mi North 10.4 mph - N/A   Partly Cloudy
6:54 PM 84.0 °F 87.8 °F 69.1 °F 61% 29.91 in 10.0 mi North 12.7 mph - N/A   Clear
7:54 PM 81.0 °F 84.1 °F 69.1 °F 67% 29.93 in 10.0 mi NNE 9.2 mph - N/A   Partly Cloudy
8:54 PM 79.0 °F - 68.0 °F 69% 29.95 in 10.0 mi North 12.7 mph - N/A   Partly Cloudy
9:54 PM 77.0 °F - 68.0 °F 74% 29.98 in 10.0 mi NNE 6.9 mph - N/A   Partly Cloudy
10:54 PM 75.9 °F - 66.9 °F 74% 29.99 in 10.0 mi NNE 9.2 mph - N/A   Partly Cloudy
11:54 PM 73.9 °F - 66.9 °F 79% 30.01 in 10.0 mi NNE 6.9 mph - N/A   Partly Cloudy